AEHF-3 (USA 246)

Last updated on March 8, 2021, 6:42 a.m. UTC

1 39256U 13050A   21066.87194166 -.00000375  00000-0  00000-0 0  9997
2 39256   0.7395  45.5123 0006031 303.4447 241.7320  1.00277306 26346
UTC
Height (km)
Latitude
Longitude
Inclination
Orbital Period
UTC large
Height (km)
Speed (km/s)
/
Latitude / Longitude
Inclination (degrees)
Orbital Period (minutes)
Azimuth
Elevation
Range (km)
Doppler Factor
iOS Compass Heading
iOS Angle

Next 30 passes for location: Hong Kong

Rise time Rise Azimuth (degrees) Set time Set Azimuth (degrees) Duration Max altitude (degrees)

No matching passes for this satellites